Tracking 25195 objects as of 20-Jan-2022
HD Live streaming from Space Station
objects crossing your sky now

STARLINK-2192

Track STARLINK-2192 now!
10-day predictions
STARLINK-2192 is classified as:


NORAD ID: 47769
Int'l Code: 2021-017AZ
Perigee: 553.4 km
Apogee: 555.3 km
Inclination: 53.1 °
Period: 95.6 minutes
Semi major axis: 6925 km
RCS: Unknown
Launch date: March 4, 2021
Source: United States (US)
Launch site: AIR FORCE EASTERN TEST RANGE (AFETR)
aabbcc
Your satellite tracking list
Your tracking list is empty




NASA's NSSDC Master Catalog

Two Line Element Set (TLE):
1 47769U 21017AZ  22019.55857562  .00004147  00000-0  29714-3 0  9993
2 47769  53.0523 130.8500 0001374  78.9968 281.1175 15.06394741 49763
Source of the keplerian elements: AFSPC